Location: Newark
(44.9333°N, 0.5667°E)
Time: 02:10:42
(UTC+00:00)

Oscar 11 - Pass Details

Date: 02 March 2020
Orbit: 612 x 626 km, 97.6° (Epoch: 08 April)

Event Time Altitude Azimuth Distance (km) Brightness Sun altitude
Rises 18:22:37 0° 180° (S) 2,897 10.5 -7.1°
Reaches altitude 10° 18:24:52 10° 186° (S) 1,995 9.8 -7.5°
Maximum altitude 18:29:04 48° 261° (W) 822 8.3 -8.2°
Drops below altitude 10° 18:33:18 10° 336° (NNW) 2,007 10.0 -9.0°
Sets 18:35:34 0° 342° (NNW) 2,916 10.8 -9.4°
